Wind_Speed
4 5 5 5 5 6 6 7 8 9 9 10 10 10 10 10 11 11 11 12 12 13 13 14 14 15 15 15 15 14 14 15 15 15 15 15 16 16 16 17 17 18 18
4 4 5 5 6 6 7 8 9 10 10 10 10 11 11 11 11 11 11 11 12 12 13 14 14 15 16 16 16 16 16 16 16 17 17 17 18 18 19 19 19 20 20
4 5 5 6 7 8 9 9 10 11 11 11 12 12 11 11 11 11 12 12 12 13 14 14 15 16 17 18 18 18 19 19 20 20 20 21 21 21 22 22 22 22 22
5 6 7 8 9 10 11 11 12 12 12 12 12 12 12 12 12 12 12 13 13 14 14 15 16 17 18 19 20 21 21 22 23 23 23 24 24 25 25 26 26 26 26
7 8 9 10 11 12 12 13 13 12 12 12 12 12 11 11 12 12 13 13 14 14 14 15 16 17 18 19 20 21 22 23 24 25 26 26 27 28 28 29 29 30 30
9 10 11 12 13 13 14 13 13 12 12 12 11 11 11 12 12 12 13 14 14 15 15 16 16 17 18 19 20 21 22 23 24 25 26 27 28 29 30 31 32 32 33
11 12 14 14 15 14 14 13 13 12 11 11 11 11 12 12 13 14 14 15 15 16 16 17 18 19 19 20 21 21 22 23 23 24 25 26 27 28 29 31 32 33 34
14 15 16 16 16 15 14 14 12 11 11 11 11 12 13 13 14 15 16 16 17 17 18 19 19 20 21 22 23 23 24 25 25 25 26 27 27 28 29 30 32 33 35
16 16 17 16 16 15 14 13 12 11 11 12 12 13 13 14 15 16 17 17 18 19 19 20 21 22 23 24 25 26 27 28 28 29 30 30 30 31 31 32 33 34 35
18 18 18 17 16 16 15 13 12 12 12 12 12 13 14 14 15 16 17 18 19 19 20 21 22 23 24 25 27 28 29 30 31 32 33 34 34 35 35 36 36 37 37
19 18 18 18 17 16 15 14 13 13 12 13 13 13 14 15 15 16 17 18 19 20 21 22 23 24 25 27 28 29 30 32 33 34 36 37 38 38 39 39 40 41 41
19 18 18 18 17 16 16 15 14 14 14 14 14 14 15 15 16 17 18 19 20 21 22 23 24 25 26 27 28 30 31 33 34 36 37 39 40 41 42 43 43 44 44
19 19 20 19 18 18 17 17 16 16 16 16 16 16 16 17 17 18 19 20 21 23 24 25 26 27 28 29 30 31 32 33 35 36 38 40 41 43 44 45 46 47 48
19 20 21 20 19 20 19 19 19 19 19 19 18 19 19 20 20 21 22 24 25 26 27 28 29 30 31 32 33 34 35 35 36 37 39 41 42 44 45 47 48 49 50
21 22 22 22 22 22 22 22 22 22 22 22 22 22 23 23 24 25 26 27 28 29 30 31 33 34 35 36 37 38 39 40 40 41 41 42 43 45 46 48 49 51 52
23 23 23 23 24 25 25 25 25 25 26 26 26 27 27 28 29 29 30 31 32 33 34 36 37 38 39 40 41 42 44 45 45 45 45 45 45 46 47 49 50 51 52
25 26 26 27 27 28 28 29 29 29 29 29 30 31 32 32 33 34 34 36 37 37 39 40 41 42 43 44 45 46 47 49 50 50 50 49 49 49 50 50 51 52 53
28 28 28 29 30 31 32 32 32 32 32 33 34 35 36 37 37 38 39 40 41 42 43 44 45 46 47 48 49 50 51 53 54 54 54 53 52 52 52 53 53 54 55
30 30 30 31 32 34 35 35 36 36 36 37 38 39 40 41 42 43 43 44 45 46 47 48 49 50 51 52 53 53 55 56 57 57 57 57 56 55 55 55 55 56 56
32 32 32 34 35 37 38 38 39 39 40 41 42 43 44 45 46 47 47 48 49 50 51 52 54 54 55 56 57 57 58 59 60 60 60 59 58 58 58 57 57 58 58
33 34 34 35 37 38 39 40 42 43 44 45 45 46 47 48 50 51 52 52 53 54 54 56 58 59 60 61 61 62 62 62 62 62 61 60 60 60 60 60 60 60 60
31 33 35 36 37 39 41 42 44 45 46 46 47 48 50 52 53 54 55 56 57 58 58 59 61 63 63 64 65 66 65 64 63 62 60 60 60 61 61 61 61 61 62
31 32 34 36 37 39 41 43 44 45 46 46 48 50 53 54 55 57 58 59 60 61 62 63 64 66 67 67 67 67 67 66 65 61 59 59 59 60 60 61 61 62 63
31 33 34 36 38 39 41 43 44 46 46 47 50 52 54 56 57 59 60 61 63 64 65 66 68 69 69 69 68 67 67 66 64 62 60 59 59 60 60 61 62 63 64
32 33 35 36 38 40 42 44 46 47 48 51 52 54 55 57 59 60 62 63 65 66 67 68 70 70 70 69 68 67 66 64 63 62 61 60 61 61 61 62 63 64 65
35 36 37 38 40 42 43 45 47 49 51 53 54 56 57 59 60 61 63 65 66 68 69 70 71 71 70 69 68 67 65 64 63 63 62 62 63 63 63 64 65 66 67
Wind_Direction
287 285 279 276 276 278 281 283 283 283 283 284 285 285 286 288 289 290 290 290 290 288 288 287 287 286 286 285 283 281 278 276 275 274 272 270 268 266 264 262 261 261 259
285 282 281 281 282 283 285 286 288 288 287 287 288 289 290 290 291 292 292 292 291 290 288 286 285 284 284 283 282 280 279 277 276 274 272 271 270 269 267 265 264 263 262
287 285 285 285 286 287 289 290 291 291 290 290 290 291 291 292 292 293 293 292 291 289 288 285 283 282 281 280 279 278 277 276 274 273 272 271 270 268 268 266 265 264 263
286 286 287 288 290 291 291 291 291 291 291 291 291 292 293 294 294 295 295 293 292 290 288 286 284 282 281 281 279 278 277 275 274 273 271 270 269 268 267 267 265 265 264
281 283 286 288 289 289 290 290 290 290 290 291 292 293 294 295 296 296 296 295 294 292 290 288 287 285 284 283 282 281 280 278 277 275 273 272 270 268 267 267 266 265 265
279 281 283 286 287 287 287 288 287 288 289 291 292 294 296 297 298 298 298 297 296 295 295 293 292 290 289 288 287 285 284 283 281 279 277 275 273 271 269 268 267 266 265
277 279 281 283 284 285 285 285 285 286 287 290 292 295 297 299 300 300 300 300 300 299 298 297 296 295 294 292 291 290 288 287 285 283 281 279 277 276 274 272 270 269 267
276 277 279 281 282 282 281 282 282 283 286 290 294 298 300 302 304 304 304 304 303 302 301 300 299 298 296 295 293 292 291 290 289 288 286 284 282 280 278 276 274 272 271
277 276 278 278 278 277 278 278 279 281 285 290 296 300 304 306 307 308 308 307 306 305 303 302 301 300 298 297 295 293 292 291 290 289 288 286 285 283 281 280 278 276 274
276 275 275 276 275 274 273 273 276 280 284 291 297 303 307 309 311 311 311 311 310 308 307 306 305 303 301 299 297 295 293 291 290 288 287 286 284 283 281 280 279 278 276
275 274 273 273 272 270 269 270 274 278 284 290 296 302 305 308 309 310 311 312 311 311 310 309 308 306 304 302 299 297 294 292 290 288 286 284 283 282 280 279 278 277 276
275 274 271 268 268 267 266 269 272 277 281 287 292 297 300 302 304 306 308 309 309 309 309 309 309 308 307 305 303 300 297 294 291 288 286 284 282 281 279 278 277 276 275
274 271 268 267 265 265 265 268 271 274 278 282 286 290 293 296 298 300 302 303 304 305 305 306 307 307 307 307 306 304 302 298 294 290 287 284 282 280 279 277 276 275 274
271 268 268 267 266 264 265 266 270 273 276 279 282 285 288 291 294 296 297 298 300 300 301 302 303 304 305 305 306 306 304 302 299 295 291 286 283 280 278 277 275 274 273
270 268 268 269 268 266 266 267 269 271 273 276 279 282 285 288 290 292 294 296 297 298 299 299 300 300 301 302 303 304 304 303 302 299 296 291 287 283 280 277 275 274 273
271 270 270 269 268 267 266 267 269 270 272 274 277 280 282 284 287 289 291 293 294 295 296 297 297 298 299 300 301 302 303 303 303 301 298 295 291 287 283 280 277 275 274
272 271 270 269 269 269 268 268 269 270 271 273 275 278 280 282 284 286 288 290 292 293 294 295 296 296 297 298 299 301 302 302 302 301 298 296 293 289 286 283 280 278 276
274 273 271 271 270 269 269 269 270 271 271 273 274 276 279 281 282 285 286 288 290 292 293 293 294 295 296 297 298 299 300 301 301 300 299 296 294 291 288 285 282 280 279
277 274 273 271 271 269 269 269 270 271 271 272 273 275 277 280 282 283 285 287 289 291 292 293 294 294 295 295 296 297 298 299 300 300 299 296 294 291 289 286 284 282 281
278 276 273 271 270 270 269 270 270 270 270 271 272 274 276 279 281 283 285 287 289 290 291 292 293 294 295 295 295 296 297 297 298 298 297 296 293 291 289 287 285 284 283
280 278 275 273 273 272 272 271 271 271 272 273 274 276 277 278 280 283 285 287 288 290 291 292 293 294 294 295 295 295 296 296 297 297 296 295 293 292 290 289 287 286 285
284 282 280 278 276 276 275 274 274 275 275 276 276 277 277 278 280 283 285 287 288 289 290 291 292 293 294 294 295 295 295 295 295 295 294 294 293 291 290 289 287 286 286
288 285 283 282 280 279 278 278 277 277 278 278 278 277 277 279 281 282 284 286 288 289 290 291 292 293 293 294 294 295 295 294 293 292 292 291 290 290 289 289 288 287 287
290 287 285 283 282 281 279 279 278 278 278 278 277 277 278 279 281 282 284 286 287 288 289 290 291 292 293 294 294 294 294 294 294 293 291 291 290 290 289 289 289 289 289
292 289 287 285 284 282 281 280 279 280 279 278 279 279 280 280 281 283 284 285 286 287 289 290 291 292 293 294 294 294 294 294 294 294 292 292 291 290 290 290 290 290 290
293 290 288 286 284 282 281 281 280 280 280 280 280 281 281 281 282 283 284 284 286 287 288 289 290 292 293 293 294 294 295 294 294 294 293 293 292 292 292 292 292 291 291
Height
5870 5871 5871 5872 5872 5872 5873 5873 5873 5873 5873 5873 5873 5873 5873 5873 5873 5873 5873 5873 5873 5873 5873 5873 5873 5872 5873 5874 5874 5875 5876 5876 5877 5877 5878 5879 5879 5880 5880 5881 5882 5882 5883
5870 5870 5870 5871 5871 5871 5871 5872 5872 5871 5871 5871 5871 5871 5871 5870 5870 5870 5870 5870 5870 5870 5870 5870 5870 5870 5870 5871 5871 5872 5872 5873 5874 5874 5875 5875 5876 5876 5877 5878 5879 5879 5880
5869 5869 5869 5870 5870 5870 5870 5870 5870 5869 5869 5869 5869 5868 5868 5868 5868 5868 5868 5868 5868 5868 5868 5868 5868 5868 5868 5868 5868 5869 5869 5870 5870 5871 5871 5872 5872 5873 5873 5874 5875 5875 5876
5868 5868 5868 5868 5868 5868 5868 5868 5868 5867 5867 5867 5866 5866 5866 5866 5865 5865 5865 5865 5865 5865 5865 5865 5865 5865 5864 5864 5864 5865 5865 5865 5866 5866 5867 5867 5868 5868 5868 5869 5870 5870 5871
5866 5866 5866 5866 5866 5866 5866 5866 5865 5865 5864 5864 5864 5863 5863 5863 5863 5862 5862 5862 5862 5862 5862 5862 5862 5861 5861 5861 5861 5860 5861 5861 5861 5861 5861 5862 5862 5863 5863 5863 5864 5865 5865
5865 5864 5864 5864 5864 5864 5863 5863 5863 5862 5862 5862 5861 5861 5861 5860 5860 5860 5860 5859 5859 5859 5858 5858 5858 5858 5857 5857 5857 5856 5856 5856 5856 5856 5856 5856 5856 5857 5857 5857 5857 5858 5859
5863 5862 5862 5862 5862 5861 5861 5861 5860 5860 5859 5859 5859 5859 5858 5858 5857 5857 5857 5856 5856 5855 5855 5854 5854 5853 5853 5853 5852 5852 5851 5851 5851 5851 5851 5851 5850 5850 5850 5850 5851 5851 5851
5860 5860 5859 5859 5859 5859 5858 5858 5858 5857 5857 5857 5857 5856 5856 5855 5854 5854 5853 5853 5852 5851 5851 5850 5850 5849 5848 5848 5847 5847 5846 5846 5845 5845 5845 5844 5844 5844 5844 5844 5844 5844 5844
5857 5857 5856 5856 5856 5856 5856 5855 5855 5855 5855 5854 5854 5853 5853 5852 5851 5851 5850 5849 5849 5848 5847 5846 5846 5845 5844 5843 5842 5841 5841 5840 5839 5839 5838 5838 5837 5837 5837 5837 5836 5836 5836
5854 5854 5854 5853 5853 5853 5853 5853 5852 5852 5852 5852 5851 5850 5850 5849 5848 5848 5847 5846 5845 5844 5843 5842 5841 5840 5839 5838 5837 5836 5835 5834 5833 5832 5831 5831 5830 5829 5829 5829 5829 5828 5828
5851 5851 5851 5851 5850 5850 5850 5850 5850 5849 5849 5849 5848 5847 5847 5846 5845 5845 5844 5843 5842 5841 5840 5838 5837 5836 5835 5833 5832 5830 5829 5828 5827 5825 5824 5823 5822 5821 5821 5820 5820 5820 5819
5847 5847 5847 5847 5847 5847 5847 5847 5847 5846 5846 5845 5845 5844 5844 5843 5842 5841 5840 5839 5838 5837 5836 5835 5833 5832 5830 5828 5827 5825 5823 5822 5820 5819 5817 5815 5814 5813 5812 5811 5811 5810 5810
5844 5844 5843 5844 5844 5844 5844 5844 5843 5843 5842 5842 5841 5841 5840 5839 5839 5838 5837 5835 5834 5833 5832 5830 5829 5827 5825 5824 5822 5819 5817 5815 5813 5811 5809 5807 5806 5804 5803 5802 5801 5800 5799
5840 5840 5839 5840 5840 5840 5840 5840 5839 5839 5839 5838 5837 5837 5836 5835 5834 5833 5832 5831 5829 5828 5827 5825 5823 5821 5819 5817 5815 5813 5811 5808 5806 5803 5801 5799 5796 5795 5793 5791 5790 5789 5788
5836 5836 5835 5836 5836 5836 5836 5836 5835 5835 5834 5834 5833 5832 5831 5830 5829 5828 5826 5825 5823 5822 5820 5819 5817 5815 5812 5810 5808 5805 5803 5800 5797 5795 5792 5789 5786 5784 5782 5780 5779 5777 5776
5832 5831 5831 5831 5831 5830 5830 5830 5830 5830 5829 5828 5827 5826 5825 5824 5822 5821 5820 5818 5817 5815 5813 5811 5809 5806 5804 5801 5799 5796 5793 5790 5787 5785 5782 5778 5775 5773 5770 5768 5766 5765 5763
5827 5827 5826 5826 5825 5825 5824 5824 5824 5823 5823 5822 5821 5819 5818 5817 5815 5814 5812 5811 5809 5807 5805 5802 5800 5797 5795 5792 5789 5786 5783 5779 5776 5773 5770 5766 5763 5760 5757 5755 5753 5751 5749
5822 5822 5821 5820 5819 5819 5818 5817 5817 5816 5816 5815 5813 5812 5810 5809 5807 5806 5804 5802 5799 5797 5795 5792 5790 5787 5784 5781 5778 5775 5771 5768 5764 5760 5756 5753 5750 5747 5743 5741 5738 5736 5734
5816 5815 5815 5814 5813 5811 5810 5810 5809 5809 5808 5807 5805 5804 5801 5799 5798 5796 5794 5792 5790 5787 5784 5781 5778 5775 5772 5769 5766 5763 5759 5755 5751 5747 5743 5739 5735 5732 5729 5726 5723 5721 5718
5809 5808 5808 5806 5805 5803 5803 5802 5801 5800 5799 5797 5796 5795 5793 5790 5787 5785 5784 5782 5779 5776 5773 5769 5766 5763 5759 5756 5753 5750 5746 5742 5737 5733 5728 5724 5719 5716 5712 5709 5707 5704 5701
5802 5800 5800 5799 5797 5795 5795 5794 5792 5791 5789 5788 5787 5785 5783 5780 5777 5774 5772 5770 5767 5764 5761 5757 5753 5749 5745 5741 5738 5735 5732 5727 5723 5718 5713 5708 5704 5699 5696 5692 5689 5686 5683
5794 5792 5791 5790 5789 5787 5786 5784 5783 5782 5781 5779 5778 5775 5772 5769 5766 5763 5760 5758 5754 5751 5748 5744 5739 5735 5731 5727 5722 5718 5715 5713 5708 5704 5699 5694 5688 5684 5680 5675 5672 5669 5666
5786 5784 5783 5781 5780 5779 5776 5775 5774 5772 5771 5769 5767 5764 5761 5758 5755 5752 5748 5744 5741 5737 5734 5729 5725 5720 5716 5712 5707 5702 5697 5694 5690 5689 5685 5680 5674 5669 5664 5660 5655 5651 5647
5778 5776 5774 5772 5770 5768 5766 5765 5763 5761 5760 5758 5754 5752 5749 5745 5742 5739 5735 5731 5727 5723 5719 5714 5709 5705 5700 5695 5691 5687 5681 5676 5672 5668 5666 5662 5657 5653 5648 5643 5639 5634 5630
5770 5768 5765 5763 5760 5758 5756 5754 5751 5750 5748 5744 5741 5739 5736 5732 5728 5725 5721 5716 5712 5707 5703 5698 5693 5688 5684 5679 5674 5670 5665 5660 5655 5650 5647 5644 5639 5635 5630 5626 5621 5616 5612
5762 5759 5756 5753 5750 5747 5744 5742 5739 5737 5734 5730 5727 5724 5721 5718 5715 5711 5705 5701 5696 5691 5687 5682 5676 5672 5667 5663 5657 5653 5648 5644 5640 5634 5630 5626 5621 5617 5612 5608 5603 5597 5593